Weather History for KTVR - March, 2014

Change the Weather History Date:

Sunday, March 23, 2014

  Actual Average Record
Temperature  
Mean Temperature 55 °F 59 °F  
Max Temperature 65 °F 70 °F 84 °F (1995)
Min Temperature 44 °F 48 °F 30 °F (1955)
Degree Days  
Heating Degree Days 10 7  
Month to date heating degree days 296 215  
Since 1 July heating degree days 2705 2191  
Cooling Degree Days 0 1  
Month to date cooling degree days 2 20  
Year to date cooling degree days 9 29  
Growing Degree Days 6 (Base 50)    
Moisture  
Dew Point 43 °F    
Average Humidity 70    
Maximum Humidity 86    
Minimum Humidity 54    
Precipitation  
Precipitation 0.10 in 0.17 in 1.51 in (1958)
Month to date precipitation 3.19 3.76  
Year to date precipitation 8.61 14.10  
Sea Level Pressure  
Sea Level Pressure 30.19 in    
Wind  
Wind Speed 14 mph (NNE)    
Max Wind Speed 23 mph    
Max Gust Speed 29 mph    
Visibility 10 miles    
Events Rain    
T = Trace of Precipitation, MM = Missing Value Source: NWS Daily Summary

Daily Weather History Graph

Daily Weather History Graph

Search for Another Location

Airport or City:

Trip Planner

Search our weather history database for the weather conditions in past years. The results will help you decide how hot, cold, wet, or windy it might be!

Date:

Astronomy

Mar. 23, 2014 Rise Set
Actual Time 7:03 AM CDT 7:17 PM CDT
Civil Twilight 6:39 AM CDT 7:42 PM CDT
Nautical Twilight 6:10 AM CDT 8:10 PM CDT
Astronomical Twilight 5:41 AM CDT 8:39 PM CDT
Moon 1:18 AM CDT (3/23) 12:01 PM CDT (3/23)
Length of Visible Light 13h 02m
Length of Day
12h 13m
Waning Gibbous, 54% of the Moon is Illuminated
Mar 23
Waning Gibbous
Mar 23
Last Quarter
Mar 30
New
Apr 7
First Quarter
Apr 15
Full

Hourly Weather History & Observations

Time (CDT) Temp. Dew Point Humidity Pressure Visibility Wind Dir Wind Speed Gust Speed Precip Events Conditions
12:53 AM 64.0 °F 55.0 °F 73% 30.03 in 10.0 mi NNE 4.6 mph - N/A   Mostly Cloudy
1:53 AM 62.1 °F 53.1 °F 72% 30.01 in 10.0 mi North 8.1 mph - N/A   Mostly Cloudy
2:53 AM 57.9 °F 48.9 °F 72% 30.04 in 10.0 mi North 13.8 mph - N/A   Overcast
3:53 AM 55.9 °F 48.9 °F 77% 30.05 in 10.0 mi North 10.4 mph - N/A   Overcast
4:09 AM 55.9 °F 48.0 °F 75% 30.03 in 10.0 mi North 13.8 mph 23.0 mph N/A   Overcast
4:53 AM 54.0 °F 46.9 °F 77% 30.07 in 10.0 mi North 17.3 mph 27.6 mph N/A   Overcast
5:53 AM 51.1 °F 46.9 °F 86% 30.09 in 10.0 mi NE 13.8 mph 26.5 mph 0.03 in   Overcast
6:40 AM 50.0 °F 48.0 °F 93% 30.12 in 10.0 mi North 16.1 mph - 0.01 in   Overcast
6:53 AM 48.9 °F 46.9 °F 93% 30.15 in 4.0 mi North 15.0 mph 20.7 mph 0.07 in Rain Light Rain
7:53 AM 48.9 °F 46.0 °F 90% 30.20 in 10.0 mi NNE 13.8 mph - 0.00 in   Overcast
8:53 AM 48.9 °F 44.1 °F 83% 30.23 in 10.0 mi NNE 19.6 mph 28.8 mph N/A   Overcast
9:00 AM 48.9 °F 44.1 °F 83% 30.21 in 10.0 mi NNE 17.3 mph 28.8 mph N/A   Overcast
9:53 AM 48.9 °F 44.1 °F 83% 30.26 in 10.0 mi NNE 15.0 mph 23.0 mph N/A   Overcast
10:53 AM 50.0 °F 44.1 °F 80% 30.28 in 10.0 mi NNE 15.0 mph 24.2 mph N/A   Overcast
11:53 AM 52.0 °F 44.1 °F 74% 30.27 in 10.0 mi NNE 15.0 mph - N/A   Overcast
12:53 PM 54.0 °F 44.1 °F 69% 30.27 in 10.0 mi NNE 18.4 mph - N/A   Overcast
1:53 PM 51.1 °F 42.1 °F 71% 30.25 in 10.0 mi North 18.4 mph 25.3 mph N/A   Overcast
2:53 PM 57.0 °F 42.1 °F 57% 30.24 in 10.0 mi North 16.1 mph 23.0 mph N/A   Mostly Cloudy
3:04 PM 55.9 °F 42.1 °F 60% 30.22 in 10.0 mi North 17.3 mph 21.9 mph N/A   Scattered Clouds
3:53 PM 55.0 °F 39.9 °F 57% 30.23 in 10.0 mi North 15.0 mph - N/A   Clear
4:53 PM 54.0 °F 39.9 °F 59% 30.21 in 10.0 mi NNE 17.3 mph 24.2 mph N/A   Clear
5:53 PM 54.0 °F 39.9 °F 59% 30.26 in 10.0 mi North 11.5 mph - N/A   Clear
6:53 PM 52.0 °F 37.9 °F 59% 30.24 in 10.0 mi North 15.0 mph - N/A   Partly Cloudy
7:53 PM 52.0 °F 36.0 °F 54% 30.25 in 10.0 mi North 12.7 mph 20.7 mph N/A   Mostly Cloudy
8:53 PM 51.1 °F 35.1 °F 54% 30.23 in 10.0 mi NNE 16.1 mph - 0.00 in Rain Light Rain
9:53 PM 50.0 °F 33.1 °F 52% 30.24 in 10.0 mi NNE 10.4 mph - 0.00 in   Clear
10:53 PM 48.9 °F 34.0 °F 56% 30.27 in 10.0 mi NNE 8.1 mph - N/A   Clear
11:53 PM 46.9 °F 33.1 °F 59% 30.26 in 10.0 mi NNE 8.1 mph - N/A   Clear